Location: Westminster
(33.3626°N, 96.4619°W)
Time: 20:23:10
(UTC+00:00)

NOAA 6 - Pass Details

Date: 03 December 2021
Orbit: 772 x 786 km, 98.7° (Epoch: 26 January)

Event Time Altitude Azimuth Distance (km) Brightness Sun altitude
Rises 12:40:45 0° 13° (NNE) 3,252 7.2 -7.1°
Reaches altitude 10° 12:43:04 10° 14° (NNE) 2,322 6.4 -6.6°
Maximum altitude 12:48:12 85° 103° (ESE) 780 4.1 -5.6°
Drops below altitude 10° 12:53:18 10° 192° (SSW) 2,312 6.7 -4.7°
Sets 12:55:36 0° 193° (SSW) 3,237 7.4 -4.2°
